• In Österreich
  • Länderverzeichnis
  • Für 7 Tage
  • Wassertemperatur
  • Satellitenkarten
  • Wetterkarte
  • News
  • Widgets
  • user-avatar
    Anmelden

    Stündliche Wetter Lubsko

    Heute, 19 Februar, Montag

    Zeit Temperatur Niederschläge Wind Luftdruck Luftfeuchtigkeit
    00:00 0°C° 0 mm 1 m/S 764 mmHg 83%
    01:00 0°C° 0 mm 1 m/S 763 mmHg 83%
    02:00 -1°C° 0 mm 1 m/S 763 mmHg 84%
    03:00 -1°C° 0 mm 1 m/S 763 mmHg 84%
    04:00 -1°C° 0 mm 1 m/S 762 mmHg 84%
    05:00 -1°C° 0 mm 1 m/S 762 mmHg 83%
    06:00 -1°C° 0 mm 1 m/S 762 mmHg 82%
    07:00 -1°C° 0 mm 1 m/S 761 mmHg 82%
    08:00 +1°C° 0 mm 1 m/S 761 mmHg 75%
    09:00 +2°C° 0 mm 1 m/S 761 mmHg 69%
    10:00 +2°C° 0 mm 2 m/S 761 mmHg 63%
    11:00 +4°C° 0 mm 1 m/S 761 mmHg 58%
    12:00 +5°C° 0 mm 1 m/S 760 mmHg 54%
    13:00 +6°C° 0 mm 1 m/S 760 mmHg 49%
    14:00 +5°C° 0 mm 1 m/S 760 mmHg 51%
    15:00 +5°C° 0 mm 1 m/S 759 mmHg 54%
    16:00 +5°C° 0 mm 1 m/S 759 mmHg 56%
    17:00 +4°C° 0 mm 1 m/S 759 mmHg 60%
    18:00 +1°C° 0 mm 2 m/S 759 mmHg 64%
    19:00 -1°C° 0 mm 2 m/S 759 mmHg 69%
    20:00 -1°C° 0 mm 2 m/S 759 mmHg 70%
    21:00 -1°C° 0 mm 2 m/S 758 mmHg 71%
    22:00 -1°C° 0 mm 2 m/S 758 mmHg 72%
    23:00 -2°C° 0 mm 2 m/S 758 mmHg 73%

    Morgen, 20 Februar, Dienstag

    Zeit Temperatur Niederschläge Wind Luftdruck Luftfeuchtigkeit
    00:00 -2°C° 0 mm 2 m/S 758 mmHg 74%
    01:00 -2°C° 0 mm 2 m/S 758 mmHg 75%
    02:00 -2°C° 0 mm 2 m/S 758 mmHg 76%
    03:00 -2°C° 0 mm 2 m/S 758 mmHg 77%
    04:00 -2°C° 0 mm 2 m/S 758 mmHg 78%
    05:00 -3°C° 0 mm 2 m/S 758 mmHg 79%
    06:00 -3°C° 0 mm 2 m/S 758 mmHg 80%
    07:00 -3°C° 0 mm 2 m/S 758 mmHg 81%
    08:00 -2°C° 0 mm 2 m/S 758 mmHg 75%
    09:00 -1°C° 0 mm 3 m/S 758 mmHg 70%
    10:00 0°C° 0 mm 3 m/S 758 mmHg 64%
    11:00 +1°C° 0 mm 3 m/S 758 mmHg 60%
    12:00 +2°C° 0 mm 3 m/S 758 mmHg 56%
    13:00 +3°C° 0 mm 3 m/S 758 mmHg 51%
    14:00 +3°C° 0 mm 3 m/S 758 mmHg 53%
    15:00 +2°C° 0 mm 3 m/S 758 mmHg 54%
    16:00 +2°C° 0 mm 3 m/S 758 mmHg 56%
    17:00 +1°C° 0 mm 3 m/S 758 mmHg 62%
    18:00 -1°C° 0 mm 3 m/S 758 mmHg 67%
    19:00 -2°C° 0 mm 3 m/S 759 mmHg 73%
    20:00 -2°C° 0 mm 3 m/S 759 mmHg 74%
    21:00 -4°C° 0 mm 3 m/S 759 mmHg 75%
    22:00 -4°C° 0 mm 3 m/S 760 mmHg 76%
    23:00 -3°C° 0 mm 2 m/S 760 mmHg 77%

    übermorgen, 21 Februar, Mittwoch

    Zeit Temperatur Niederschläge Wind Luftdruck Luftfeuchtigkeit
    00:00 -3°C° 0 mm 2 m/S 760 mmHg 79%
    01:00 -3°C° 0 mm 2 m/S 760 mmHg 80%
    02:00 -3°C° 0 mm 2 m/S 760 mmHg 81%
    03:00 -4°C° 0 mm 2 m/S 761 mmHg 82%
    04:00 -4°C° 0 mm 2 m/S 761 mmHg 83%
    05:00 -4°C° 0 mm 2 m/S 761 mmHg 84%
    06:00 -4°C° 0 mm 2 m/S 761 mmHg 84%
    07:00 -4°C° 0 mm 2 m/S 761 mmHg 85%
    08:00 -3°C° 0 mm 2 m/S 761 mmHg 79%
    09:00 -2°C° 0 mm 3 m/S 761 mmHg 73%
    10:00 0°C° 0 mm 3 m/S 761 mmHg 66%
    11:00 0°C° 0 mm 3 m/S 761 mmHg 63%
    12:00 +1°C° 0 mm 3 m/S 761 mmHg 59%
    13:00 +2°C° 0 mm 3 m/S 761 mmHg 56%
    14:00 +2°C° 0 mm 3 m/S 761 mmHg 57%
    15:00 +1°C° 0 mm 3 m/S 761 mmHg 59%
    16:00 +1°C° 0 mm 3 m/S 760 mmHg 60%
    17:00 0°C° 0 mm 3 m/S 761 mmHg 64%
    18:00 -1°C° 0 mm 3 m/S 761 mmHg 69%
    19:00 -2°C° 0 mm 3 m/S 761 mmHg 73%
    20:00 -2°C° 0 mm 3 m/S 761 mmHg 73%
    21:00 -4°C° 0 mm 3 m/S 762 mmHg 73%
    22:00 -4°C° 0 mm 3 m/S 762 mmHg 72%
    23:00 -4°C° 0 mm 3 m/S 762 mmHg 71%

    22 Februar, Donnerstag

    Zeit Temperatur Niederschläge Wind Luftdruck Luftfeuchtigkeit
    00:00 -4°C° 0 mm 3 m/S 762 mmHg 70%
    01:00 -4°C° 0 mm 3 m/S 762 mmHg 69%
    02:00 -5°C° 0 mm 3 m/S 762 mmHg 69%
    03:00 -5°C° 0 mm 3 m/S 761 mmHg 68%
    04:00 -5°C° 0 mm 3 m/S 761 mmHg 67%
    05:00 -5°C° 0 mm 3 m/S 761 mmHg 66%
    06:00 -5°C° 0 mm 3 m/S 761 mmHg 65%
    07:00 -5°C° 0 mm 3 m/S 761 mmHg 64%
    08:00 -4°C° 0 mm 4 m/S 761 mmHg 58%
    09:00 -3°C° 0 mm 4 m/S 761 mmHg 53%
    10:00 -2°C° 0 mm 4 m/S 761 mmHg 47%
    11:00 -2°C° 0 mm 4 m/S 761 mmHg 44%
    12:00 -1°C° 0 mm 5 m/S 761 mmHg 42%
    13:00 0°C° 0 mm 5 m/S 760 mmHg 39%
    14:00 0°C° 0 mm 5 m/S 760 mmHg 41%
    15:00 0°C° 0 mm 4 m/S 760 mmHg 43%
    16:00 -1°C° 0 mm 4 m/S 760 mmHg 44%
    17:00 -2°C° 0 mm 4 m/S 760 mmHg 49%
    18:00 -2°C° 0 mm 3 m/S 760 mmHg 54%
    19:00 -4°C° 0 mm 3 m/S 760 mmHg 59%
    20:00 -4°C° 0 mm 3 m/S 760 mmHg 58%
    21:00 -5°C° 0 mm 3 m/S 760 mmHg 58%
    22:00 -5°C° 0 mm 3 m/S 760 mmHg 57%
    23:00 -5°C° 0 mm 3 m/S 760 mmHg 57%

    23 Februar, Freitag

    Zeit Temperatur Niederschläge Wind Luftdruck Luftfeuchtigkeit
    00:00 -5°C° 0 mm 3 m/S 760 mmHg 57%
    01:00 -6°C° 0 mm 3 m/S 760 mmHg 57%
    02:00 -6°C° 0 mm 3 m/S 760 mmHg 57%
    03:00 -6°C° 0 mm 3 m/S 760 mmHg 57%
    04:00 -6°C° 0 mm 3 m/S 760 mmHg 57%
    05:00 -6°C° 0 mm 3 m/S 760 mmHg 58%
    06:00 -6°C° 0 mm 3 m/S 760 mmHg 59%
    07:00 -7°C° 0 mm 3 m/S 760 mmHg 60%
    08:00 -7°C° 0 mm 4 m/S 760 mmHg 56%
    09:00 -5°C° 0 mm 4 m/S 760 mmHg 52%
    10:00 -5°C° 0 mm 4 m/S 761 mmHg 48%
    11:00 -5°C° 0 mm 5 m/S 760 mmHg 46%
    12:00 -5°C° 0 mm 5 m/S 760 mmHg 44%
    13:00 -4°C° 0 mm 5 m/S 760 mmHg 42%
    14:00 -4°C° 0 mm 5 m/S 760 mmHg 41%
    15:00 -4°C° 0 mm 5 m/S 760 mmHg 40%
    16:00 -5°C° 0 mm 5 m/S 760 mmHg 40%
    17:00 -4°C° 0 mm 4 m/S 760 mmHg 42%
    18:00 -5°C° 0 mm 3 m/S 760 mmHg 44%
    19:00 -5°C° 0 mm 2 m/S 760 mmHg 46%
    20:00 -5°C° 0 mm 2 m/S 761 mmHg 48%
    21:00 -5°C° 0 mm 2 m/S 761 mmHg 50%
    22:00 -5°C° 0 mm 2 m/S 761 mmHg 52%
    23:00 -5°C° 0 mm 2 m/S 761 mmHg 54%

    24 Februar, Samstag

    Zeit Temperatur Niederschläge Wind Luftdruck Luftfeuchtigkeit
    00:00 -6°C° 0 mm 3 m/S 761 mmHg 57%
    01:00 -6°C° 0 mm 3 m/S 761 mmHg 59%
    02:00 -7°C° 0 mm 3 m/S 760 mmHg 60%
    03:00 -7°C° 0 mm 3 m/S 760 mmHg 61%
    04:00 -7°C° 0 mm 3 m/S 760 mmHg 62%
    05:00 -8°C° 0 mm 4 m/S 760 mmHg 60%
    06:00 -8°C° 0 mm 4 m/S 760 mmHg 59%
    07:00 -9°C° 0 mm 4 m/S 760 mmHg 57%
    08:00 -8°C° 0 mm 4 m/S 761 mmHg 52%
    09:00 -7°C° 0 mm 5 m/S 761 mmHg 47%
    10:00 -7°C° 0 mm 5 m/S 761 mmHg 42%
    11:00 -6°C° 0 mm 5 m/S 761 mmHg 41%
    12:00 -6°C° 0 mm 5 m/S 760 mmHg 40%
    13:00 -6°C° 0 mm 5 m/S 760 mmHg 38%
    14:00 -6°C° 0,1 mm 6 m/S 760 mmHg 40%
    15:00 -6°C° 0,1 mm 6 m/S 760 mmHg 42%
    16:00 -8°C° 0,1 mm 6 m/S 760 mmHg 44%
    17:00 -7°C° 0,1 mm 5 m/S 760 mmHg 46%
    18:00 -8°C° 0,1 mm 5 m/S 760 mmHg 48%
    19:00 -8°C° 0,1 mm 4 m/S 760 mmHg 50%
    20:00 -8°C° 0 mm 5 m/S 760 mmHg 53%
    21:00 -8°C° 0 mm 5 m/S 760 mmHg 57%
    22:00 -10°C° 0 mm 5 m/S 760 mmHg 60%
    23:00 -8°C° 0 mm 5 m/S 759 mmHg 62%
    Mehr zeigen